User: anonymous   Login
Location: Dappach
(48.9767°N, 9.6998°E)
Time: 07:42:41
(UTC+00:00)
Language:

YAOGAN 6 - Orbit

View from above orbital plane
View from above orbital plane
View from above satellite
View from above satellite

Ground track
Ground track

The orbit data is extracted from the following two-line orbital elements,

1 34839U 09021A   24202.90002325  .00030507  00000-0  54681-3 0  9992
2 34839  97.1714 170.1727 0018563  61.2610 299.0504 15.49694935848657
Epoch (UTC): 20 July 2024 21:36:02
Eccentricity: 0.0018563
inclination: 97.1714°
perigee height: 405 km
apogee height: 430 km
right ascension of ascending node: 170.1727°
argument of perigee: 61.2610°
revolutions per day: 15.49694935
mean anomaly at epoch: 299.0504°
orbit number at epoch: 84865

The dashed part of the orbit path shows where the satellite is in the earth's shadow,  

DLR